Location: Alfortville
(48.8058°N, 2.4204°E)
Time: 13:47:50
(UTC+00:00)

Meteor 1-19 Rocket - Pass Details

Date: 15 December 2023
Orbit: 806 x 928 km, 81.2° (Epoch: 01 March)

Event Time Altitude Azimuth Distance (km) Brightness Sun altitude
Rises 16:53:52 0° 131° (SE) 3,534 7.2 -9.3°
Reaches altitude 10° 16:57:40 10° 107° (ESE) 2,615 6.3 -9.9°
Maximum altitude 17:00:26 14° 79° (E) 2,376 5.9 -10.3°
Enters shadow 17:01:19 13° 70° (ENE) 2,405 5.9 -10.5°
